Find Starlink 34013

NORAD ID: 63871 Int'l Des: 2025-094 Owner: SPXS Country: US Constellation: starlink operational
LEOCIRCULAR

实时位置

正在加载3D地球...

关于 Starlink 34013

正在加载描述...

即将过境

Passes for default location (London). Set your location on the main map for personalized predictions.

高度历史

Loading altitude history...

两行轨道根数

1 63871U 25094H 26107.12943357 -.00009329 00000-0 -77433-3 0 9997
2 63871 70.0015 137.4389 0004184 268.8726 91.1954 14.98361936 52962
Epoch: Apr 17, 2026 • Age: 12 hours

当前状态

高度 577.4 km
速度 7.57 km/s
星下点 -17.83°S, 111.01°W
发射日期 May 10, 2025
运行时间 0.9 years
类型 internet

技术详情

分类 Payload
质量 575.00 kg
干质量 530.00 kg
总质量 575.00 kg
长度 0.30 m
直径 4.10 m
跨度 29.00 m
形状 Box + pan
制造商 SPXS
平台类型 Starlink V2MO
阶段状态 In Orbit
所有者/国家 SPXS/US

Most Searched